Location: St Paul
(33.9360°N, 83.4200°W)
Time: 02:07:27
(UTC-04:00)

Cosmos 1538 Rocket - Pass Details

Date: 06 October 2017
Orbit: 753 x 791 km, 74.0° (Epoch: 23 October)

Event Time Altitude Azimuth Distance (km) Brightness Sun altitude
Rises 19:34:58 0° 196° (SSW) 3,237 7.5 -5.8°
Reaches altitude 10° 19:37:20 10° 196° (SSW) 2,307 6.7 -6.3°
Maximum altitude 19:42:35 88° 285° (WNW) 771 4.1 -7.4°
Drops below altitude 10° 19:47:48 10° 16° (NNE) 2,297 6.3 -8.5°
Sets 19:50:10 0° 17° (NNE) 3,221 7.0 -9.0°
